Location: Star Hoppers Observatory
(42.7905°N, 83.6127°W)
Time: 07:07:41
(UTC-04:00)

Amateur Radio Satellites - All Passes

Search period start: 06 May 2016 06:37
Search period end: 07 May 2016 06:37
Location: Star Hoppers Observatory, 42.7905°N, 83.6127°W

Satellite Date Start Highest point End Downlink Frequencies (MHz)
Time Altitude Azimuth
CUBESAT XI-V 06 May 06:54:21 06:58:35 36° 263° (W) 07:02:53 437.345
YUBILEINY 06 May 06:56:37 07:05:21 83° 264° (W) 07:14:04 435.215
LilacSat-2 06 May 07:03:05 07:05:40 17° 93° (E) 07:08:14 437.200
RS-15 06 May 07:06:03 07:18:26 89° 59° (ENE) 07:30:47 29.354- 29.394
CUTE-I 06 May 07:14:26 07:19:05 30° 96° (E) 07:23:43 437.470
HORYU 2 06 May 07:24:09 07:27:45 25° 294° (WNW) 07:31:21 437.375
SO-50 06 May 07:28:43 07:33:38 88° 299° (WNW) 07:38:35 436.795
BRITE-PL 06 May 07:30:20 07:35:52 48° 98° (E) 07:41:10 437.365/2234.400
Cosmos 2491 06 May 07:41:39 07:50:30 87° 278° (W) 07:59:25 435.465 / 435.565
NOAA 15 06 May 07:44:08 07:49:30 82° 104° (ESE) 07:54:49 137.62
AO-7 06 May 07:47:11 07:53:00 22° 310° (NW) 07:58:51 29.400- 29.500
ISS 06 May 07:52:48 07:55:59 51° 331° (NNW) 07:59:12 145.825
NOAA 18 06 May 07:58:24 08:03:54 89° 279° (W) 08:09:21 137.9125
Cubesat XI-IV 06 May 07:59:36 08:04:57 77° 103° (ESE) 08:10:17 437.490
DOVE 4 06 May 08:01:09 08:05:00 22° 91° (E) 08:08:40 437.250
STRAND 1 06 May 08:03:54 08:08:59 80° 257° (WSW) 08:14:07 437.568
Cosmos 2504 06 May 08:03:56 08:11:38 76° 81° (E) 08:19:54 435.465 / 435.565
PRISM 06 May 08:14:37 08:18:00 25° 67° (ENE) 08:21:25 437.425
HO-68 06 May 08:14:42 08:18:21 14° 88° (E) 08:21:58 435.675
GOMX 1 06 May 08:23:03 08:28:29 72° 101° (E) 08:33:36 467.674
LilacSat-2 06 May 08:36:39 08:40:05 32° 289° (WNW) 08:43:28 437.200
CANX-2 06 May 08:46:45 08:49:46 19° 93° (E) 08:52:46 2200.000
CUTE-I 06 May 08:54:19 08:59:09 36° 293° (WNW) 09:03:58 437.470
YUBILEINY 06 May 08:55:52 09:00:43 16° 285° (WNW) 09:05:34 435.215
BRITE-PL 06 May 09:09:18 09:13:59 27° 295° (WNW) 09:18:34 437.365/2234.400
M-CUBED/EXP-1 PRIME 06 May 09:11:32 09:15:24 73° 290° (WNW) 09:18:56 437.505
SO-50 06 May 09:11:35 09:14:50 17° 323° (NW) 09:18:05 436.795
PHONESAT 2.4 06 May 09:12:37 09:14:59 20° 156° (SSE) 09:17:22 2401.200-2431.200
CUTE 1.7 + AOD 2 06 May 09:18:07 09:22:02 36° 97° (E) 09:25:56 437.475
RS-15 06 May 09:20:04 09:29:23 27° 259° (W) 09:38:43 29.354- 29.394
NOAA 15 06 May 09:25:41 09:28:33 15° 302° (WNW) 09:31:27 137.62
AUBIESAT-1 06 May 09:26:51 09:30:37 58° 291° (WNW) 09:34:05 437.475
ISS 06 May 09:30:34 09:33:00 19° 351° (N) 09:35:25 145.825
COMPASS 1 06 May 09:34:51 09:38:30 29° 96° (E) 09:42:08 437.405
DOVE 4 06 May 09:38:06 09:42:55 44° 290° (WNW) 09:47:28 437.250
SEEDS 06 May 09:38:20 09:42:21 44° 98° (E) 09:46:23 437.485
NOAA 18 06 May 09:41:05 09:43:45 14° 304° (WNW) 09:46:25 137.9125
Cubesat XI-IV 06 May 09:41:16 09:44:23 16° 301° (WNW) 09:47:30 437.490
Cosmos 2491 06 May 09:42:44 09:48:44 20° 300° (WNW) 09:54:47 435.465 / 435.565
PRISM 06 May 09:49:47 09:53:14 27° 264° (W) 09:56:45 437.425
UNISAT 6 06 May 09:51:37 09:54:20 16° 63° (ENE) 09:57:00 437.425
CINEMA 3 06 May 09:53:18 09:57:54 89° 312° (NW) 10:02:16 145.822/145.860
Cosmos 2504 06 May 09:58:47 10:04:14 21° 279° (W) 10:09:56 435.465 / 435.565
UWE-3 06 May 09:59:20 10:02:41 22° 94° (E) 10:05:58 435.000/436.395/437.385
HO-68 06 May 09:59:52 10:07:04 83° 106° (ESE) 10:14:14 435.675
AAUSAT CUBESAT 2 06 May 10:01:35 10:05:36 46° 99° (E) 10:09:36 437.432
GOMX 1 06 May 10:02:29 10:05:52 17° 300° (WNW) 10:09:09 467.674
TIGRISAT 06 May 10:06:58 10:10:22 21° 65° (ENE) 10:13:44 435.000
CUBEBUG 2 06 May 10:14:31 10:18:40 48° 99° (E) 10:22:42 437.445
ZACube-1 06 May 10:21:03 10:24:34 26° 95° (E) 10:28:03 437.345
CANX-2 06 May 10:21:51 10:25:46 38° 289° (WNW) 10:29:40 2200.000
ANTELSAT 06 May 10:31:54 10:36:09 37° 70° (ENE) 10:40:20 437.575/2403.000
DELFI C3 06 May 10:43:43 10:47:05 26° 95° (E) 10:50:26 145.870
GONETS M04 06 May 10:46:01 10:52:50 24° 64° (ENE) 10:59:34
PHONESAT 2.4 06 May 10:48:25 10:51:28 49° 172° (S) 10:54:31 2401.200-2431.200
HUMSAT D 06 May 10:51:33 10:53:42 14° 91° (E) 10:55:51 437.325/437.525
CUTE 1.7 + AOD 2 06 May 10:54:31 10:57:39 21° 294° (WNW) 11:00:48 437.475
Oscar 11 06 May 10:54:54 10:59:13 74° 101° (E) 11:03:31 145.826/435.025
ISS 06 May 11:07:49 11:10:18 20° 11° (N) 11:12:48 145.825
COMPASS 1 06 May 11:10:33 11:13:57 24° 292° (WNW) 11:17:20 437.405
DUCHIFAT 1 06 May 11:12:13 11:15:09 18° 65° (ENE) 11:18:05 145.980
FUNcube-1 06 May 11:12:17 11:16:29 86° 284° (WNW) 11:20:37 145.935
AO-85 06 May 11:14:14 11:16:01 12° 105° (ESE) 11:17:49 145.980
SEEDS 06 May 11:14:59 11:17:44 17° 295° (WNW) 11:20:28 437.485
QB50P2 06 May 11:17:34 11:21:00 24° 67° (ENE) 11:24:27 145.880/145.840
AIST 1 06 May 11:18:01 11:21:50 28° 74° (ENE) 11:25:37
POLYITAN 1 06 May 11:19:45 11:23:13 24° 67° (ENE) 11:26:41 437.675
POPSAT HIP 1 06 May 11:21:16 11:24:43 24° 67° (ENE) 11:28:12 437.405
QB50P1 06 May 11:23:58 11:27:32 26° 68° (ENE) 11:31:07 145.935-145.965
UNISAT 6 06 May 11:26:01 11:30:35 60° 259° (W) 11:35:06 437.425
CINEMA 3 06 May 11:33:42 11:34:13 10° 302° (WNW) 11:34:44 145.822/145.860
UWE-3 06 May 11:35:28 11:39:12 31° 291° (WNW) 11:42:50 435.000/436.395/437.385
BUGSAT 1 06 May 11:37:43 11:40:31 17° 64° (ENE) 11:43:18 437.445
AAUSAT CUBESAT 2 06 May 11:38:09 11:40:43 16° 295° (WNW) 11:43:17 437.432
TIGRISAT 06 May 11:42:23 11:46:47 42° 261° (W) 11:51:07 435.000
HO-68 06 May 11:48:53 11:53:58 21° 305° (NW) 11:59:03 435.675
CUBEBUG 2 06 May 11:52:17 11:54:53 16° 297° (WNW) 11:57:27 437.445
NANOSAT C BR1 06 May 11:55:49 11:59:59 55° 73° (ENE) 12:04:10 145.865
ZACube-1 06 May 11:57:18 12:00:49 26° 292° (WNW) 12:04:17 437.345
Cosmos 2499 06 May 11:58:27 12:05:34 36° 72° (ENE) 12:13:08 435.465 / 435.565
ESTCUBE 1 06 May 11:59:40 12:02:35 17° 92° (E) 12:05:30 437.505/2401.250
ANTELSAT 06 May 12:09:20 12:12:57 22° 266° (W) 12:16:31 437.575/2403.000
DX 1 06 May 12:12:22 12:14:31 13° 91° (E) 12:16:39 434.975-435.025
UKube-1 06 May 12:12:45 12:13:27 10° 89° (E) 12:14:09 .
DELFI C3 06 May 12:18:36 12:21:53 25° 291° (WNW) 12:25:11 145.870
PHONESAT 2.4 06 May 12:25:05 12:28:09 49° 188° (S) 12:31:11 2401.200-2431.200
HUMSAT D 06 May 12:25:41 12:29:37 48° 287° (WNW) 12:33:32 437.325/437.525
VELOX 1 06 May 12:28:08 12:31:42 23° 94° (E) 12:35:15 145.980
Oscar 11 06 May 12:33:17 12:34:45 12° 299° (WNW) 12:36:14 145.826/435.025
JAS-2 06 May 12:37:42 12:43:00 29° 60° (ENE) 12:48:49 435.910
50 SAT 06 May 12:41:46 12:45:09 34° 98° (E) 12:48:32 437.505
GONETS M04 06 May 12:41:52 12:50:37 77° 266° (W) 12:59:17
ISS 06 May 12:44:01 12:47:15 61° 30° (NNE) 12:50:29 145.825
DUCHIFAT 1 06 May 12:46:29 12:50:32 42° 261° (W) 12:54:37 145.980
AO-85 06 May 12:50:15 12:55:43 79° 122° (ESE) 13:01:08 145.980
QB50P2 06 May 12:52:49 12:56:39 32° 263° (W) 13:00:32 145.880/145.840
POLYITAN 1 06 May 12:55:03 12:58:53 31° 264° (W) 13:02:43 437.675
AIST 1 06 May 12:55:40 12:59:20 26° 271° (W) 13:02:58
POPSAT HIP 1 06 May 12:56:34 13:00:22 31° 263° (W) 13:04:12 437.405
QB50P1 06 May 12:59:31 13:03:13 28° 264° (W) 13:06:58 145.935-145.965
AISAT 06 May 13:00:14 13:04:38 53° 101° (E) 13:08:58 437.250
BUGSAT 1 06 May 13:11:27 13:15:31 46° 261° (W) 13:19:39 437.445
CUBEBUG 1 06 May 13:25:42 13:30:09 86° 289° (WNW) 13:34:35 437.445
Oscar 19 06 May 13:31:19 13:36:07 40° 69° (ENE) 13:40:58 437.125/150
NANOSAT C BR1 06 May 13:33:55 13:36:03 14° 269° (W) 13:38:12 145.865
ESTCUBE 1 06 May 13:35:17 13:39:40 49° 288° (WNW) 13:44:03 437.505/2401.250
UKube-1 06 May 13:45:39 13:49:59 73° 286° (WNW) 13:54:18 .
DX 1 06 May 13:46:45 13:51:05 59° 287° (WNW) 13:55:23 434.975-435.025
Cosmos 2499 06 May 13:51:22 13:58:49 49° 270° (W) 14:06:49 435.465 / 435.565
Gurwin Techsat 1B 06 May 13:58:27 14:03:03 31° 66° (ENE) 14:07:40 435.225
PHONESAT 2.4 06 May 14:02:14 14:04:37 20° 204° (SSW) 14:06:59 2401.200-2431.200
VELOX 1 06 May 14:04:11 14:08:14 35° 291° (WNW) 14:12:16 145.980
O/OREOS (USA 219) 06 May 14:04:35 14:07:51 19° 101° (E) 14:11:07 437.305
SPROUT 06 May 14:07:58 14:12:16 76° 286° (WNW) 14:16:32 437.525
50 SAT 06 May 14:16:20 14:18:41 16° 294° (WNW) 14:21:00 437.505
SO-50 06 May 14:20:09 14:23:24 18° 37° (NE) 14:26:35 436.795
ISS 06 May 14:21:11 14:23:24 17° 227° (SW) 14:25:37 145.825
JAS-2 06 May 14:21:35 14:27:34 54° 262° (W) 14:34:24 435.910
TISAT 1 06 May 14:26:55 14:31:03 49° 100° (E) 14:35:06 437.305
AO-85 06 May 14:32:38 14:36:49 22° 320° (NW) 14:40:56 145.980
AISAT 06 May 14:37:52 14:40:41 17° 297° (WNW) 14:43:30 437.250
GONETS M04 06 May 14:41:34 14:45:51 15° 286° (WNW) 14:50:07
ITUPSAT 1 06 May 14:43:27 14:46:00 14° 90° (E) 14:48:32 437.325
SWISSCUBE 06 May 14:49:58 14:53:21 19° 93° (E) 14:56:42 437.505
ITAMSAT 1 06 May 14:58:41 15:03:34 45° 70° (ENE) 15:08:30 435.822/435.867
AO-7 06 May 15:01:32 15:08:40 34° 57° (ENE) 15:15:49 29.400- 29.500
Oscar 19 06 May 15:11:15 15:15:33 26° 266° (W) 15:19:53 437.125/150
BEESAT 06 May 15:21:56 15:26:18 35° 97° (E) 15:30:40 436.000
PCSat 06 May 15:26:01 15:31:13 49° 114° (ESE) 15:36:27 145.827
DANDE 06 May 15:28:32 15:30:37 16° 84° (E) 15:33:01 436.750
Gurwin Techsat 1B 06 May 15:38:03 15:42:53 36° 263° (W) 15:47:47 435.225
O/OREOS (USA 219) 06 May 15:42:31 15:46:55 44° 298° (WNW) 15:51:19 437.305
CUSAT 1 06 May 15:48:24 15:52:12 88° 280° (W) 15:57:19 437.405
SO-50 06 May 15:59:45 16:04:32 81° 234° (SW) 16:09:05 436.795
TISAT 1 06 May 16:03:45 16:06:18 16° 297° (WNW) 16:08:50 437.305
ITUPSAT 1 06 May 16:19:31 16:24:16 64° 287° (WNW) 16:28:58 437.325
KKS-1 06 May 16:20:41 16:23:46 18° 93° (E) 16:26:49 437.445
SWISSCUBE 06 May 16:26:48 16:31:24 48° 289° (WNW) 16:35:57 437.505
STARS 06 May 16:28:00 16:28:48 10° 89° (E) 16:29:36 437.465
ITAMSAT 1 06 May 16:39:12 16:43:15 23° 266° (W) 16:47:19 435.822/435.867
HORYU 2 06 May 16:46:02 16:50:03 34° 69° (ENE) 16:54:04 437.375
AO-7 06 May 16:52:51 17:01:00 61° 256° (WSW) 17:09:13 29.400- 29.500
MOZHAYETS 4 06 May 16:53:19 16:57:14 27° 95° (E) 17:01:08
BEESAT 06 May 17:00:00 17:03:56 26° 294° (WNW) 17:07:52 436.000
PCSat 06 May 17:10:12 17:14:51 28° 313° (NW) 17:19:31 145.827
DANDE 06 May 17:10:23 17:13:07 24° 293° (WNW) 17:16:30 436.750
BEESAT 3 06 May 17:19:04 17:21:02 13° 110° (ESE) 17:23:00 437.485
NOAA 15 06 May 17:27:18 17:31:03 20° 61° (ENE) 17:34:48 137.62
BEESAT 2 06 May 17:35:09 17:36:35 12° 109° (ESE) 17:38:01 435.950
Cubesat XI-IV 06 May 17:44:36 17:48:17 19° 61° (ENE) 17:51:57 437.490
NOAA 18 06 May 17:46:17 17:50:50 27° 64° (ENE) 17:55:23 137.9125
LilacSat-2 06 May 17:47:33 17:48:44 11° 63° (ENE) 17:49:55 437.200
Cosmos 2491 06 May 17:51:18 17:59:50 50° 75° (ENE) 18:08:14 435.465 / 435.565
KKS-1 06 May 17:56:17 18:00:33 44° 289° (WNW) 18:04:46 437.445
GOMX 1 06 May 17:57:06 17:59:03 12° 57° (ENE) 18:01:02 467.674
STARS 06 May 18:01:16 18:05:41 74° 286° (WNW) 18:10:03 437.465
YUBILEINY 06 May 18:04:23 18:10:50 24° 80° (E) 18:17:15 435.215
HORYU 2 06 May 18:23:02 18:26:39 24° 265° (W) 18:30:16 437.375
M-CUBED/EXP-1 PRIME 06 May 18:24:52 18:28:08 19° 59° (ENE) 18:31:19 437.505
MOZHAYETS 4 06 May 18:30:22 18:34:22 31° 292° (WNW) 18:38:22
CUTE-I 06 May 18:36:54 18:42:02 53° 71° (ENE) 18:47:13 437.470
AUBIESAT-1 06 May 18:39:30 18:42:57 21° 61° (ENE) 18:46:20 437.475
BRITE-PL 06 May 18:41:29 18:46:20 53° 72° (ENE) 18:51:35 437.365/2234.400
HO-68 06 May 18:45:59 18:49:26 14° 49° (NE) 18:52:52 435.675
CUBESAT XI-V 06 May 18:49:30 18:54:06 51° 99° (E) 18:58:41 437.345
BEESAT 3 06 May 18:54:24 18:58:17 56° 307° (NW) 19:02:11 437.485
NOAA 15 06 May 19:05:10 19:10:22 59° 259° (W) 19:15:36 137.62
DOVE 4 06 May 19:06:35 19:10:52 26° 65° (ENE) 19:15:12 437.250
BEESAT 2 06 May 19:09:56 19:13:54 65° 305° (NW) 19:17:53 435.950
LilacSat-2 06 May 19:18:42 19:22:31 61° 259° (W) 19:26:23 437.200
CINEMA 3 06 May 19:21:17 19:23:12 12° 60° (ENE) 19:25:07 145.822/145.860
Cubesat XI-IV 06 May 19:22:36 19:27:52 62° 258° (WSW) 19:33:09 437.490
NOAA 18 06 May 19:26:02 19:31:16 44° 261° (W) 19:36:31 137.9125
GOMX 1 06 May 19:31:00 19:36:08 79° 75° (ENE) 19:41:36 467.674
AIST 2 06 May 19:40:25 19:43:18 19° 111° (ESE) 19:46:12 435.215
CANX-2 06 May 19:41:00 19:43:33 16° 64° (ENE) 19:46:05 2200.000
AO-85 06 May 19:42:41 19:45:37 16° 34° (NE) 19:48:24 145.980
Cosmos 2491 06 May 19:48:34 19:56:23 38° 275° (W) 20:04:10 435.465 / 435.565
M-CUBED/EXP-1 PRIME 06 May 19:57:39 20:02:17 55° 255° (WSW) 20:06:49 437.505
YUBILEINY 06 May 19:57:58 20:06:41 75° 280° (W) 20:15:26 435.215
CUTE 1.7 + AOD 2 06 May 20:11:41 20:15:18 28° 69° (ENE) 20:18:55 437.475
AUBIESAT-1 06 May 20:12:41 20:17:09 46° 256° (WSW) 20:21:30 437.475
STRAND 1 06 May 20:13:50 20:18:25 32° 96° (E) 20:22:58 437.568
CUTE-I 06 May 20:18:32 20:22:24 20° 268° (W) 20:26:17 437.470
BRITE-PL 06 May 20:21:38 20:25:12 19° 271° (W) 20:28:59 437.365/2234.400
COMPASS 1 06 May 20:26:46 20:29:58 22° 67° (ENE) 20:33:10 437.405
CUBESAT XI-V 06 May 20:27:52 20:31:06 19° 296° (WNW) 20:34:19 437.345
HO-68 06 May 20:28:46 20:35:50 67° 69° (ENE) 20:42:56 435.675
SEEDS 06 May 20:30:51 20:34:36 33° 70° (ENE) 20:38:22 437.485
DOVE 4 06 May 20:43:21 20:48:16 43° 263° (W) 20:53:21 437.250
Cosmos 2504 06 May 20:43:43 20:50:47 61° 92° (E) 20:57:49 435.465 / 435.565
BEESAT 2 06 May 20:51:48 20:52:33 10° 325° (NW) 20:53:17 435.950
AAUSAT CUBESAT 2 06 May 20:52:39 20:56:20 33° 70° (ENE) 21:00:04 437.432
CINEMA 3 06 May 20:54:33 20:59:35 88° 77° (ENE) 21:04:36 145.822/145.860
UWE-3 06 May 20:56:54 21:00:30 23° 67° (ENE) 21:04:04 435.000/436.395/437.385
GOMX 1 06 May 21:12:22 21:14:53 14° 274° (W) 21:17:29 467.674
CUBEBUG 2 06 May 21:12:41 21:17:11 47° 72° (ENE) 21:21:37 437.445
CANX-2 06 May 21:14:56 21:19:01 48° 261° (W) 21:23:07 2200.000
ZACube-1 06 May 21:17:29 21:21:09 25° 68° (ENE) 21:24:46 437.345
AIST 2 06 May 21:17:30 21:21:28 44° 309° (NW) 21:25:28 435.215
AO-85 06 May 21:22:09 21:26:59 81° 56° (NE) 21:31:21 145.980
PRISM 06 May 21:29:52 21:33:45 36° 98° (E) 21:37:36 437.425
RS-15 06 May 21:29:59 21:40:45 54° 112° (ESE) 21:52:04 29.354- 29.394
DELFI C3 06 May 21:31:15 21:33:53 18° 66° (ENE) 21:36:33 145.870
HUMSAT D 06 May 21:44:32 21:46:15 12° 62° (ENE) 21:47:57 437.325/437.525
CUTE 1.7 + AOD 2 06 May 21:47:39 21:51:07 25° 265° (W) 21:54:37 437.475
Oscar 11 06 May 21:50:06 21:54:20 61° 74° (ENE) 21:58:37 145.826/435.025
STRAND 1 06 May 21:53:02 21:57:32 32° 293° (WNW) 22:02:02 437.568
YUBILEINY 06 May 22:00:15 22:05:11 16° 302° (WNW) 22:10:08 435.215
COMPASS 1 06 May 22:01:41 22:05:22 31° 264° (W) 22:09:05 437.405
SEEDS 06 May 22:07:14 22:10:22 21° 266° (W) 22:13:33 437.485
FUNcube-1 06 May 22:07:55 22:12:25 80° 75° (ENE) 22:16:49 145.935
HO-68 06 May 22:18:31 22:24:05 24° 268° (W) 22:29:39 435.675
AAUSAT CUBESAT 2 06 May 22:28:51 22:31:55 20° 267° (W) 22:34:59 437.432
PCSat 06 May 22:31:56 22:33:25 11° 32° (NNE) 22:34:53 145.827
UWE-3 06 May 22:32:30 22:36:46 37° 263° (W) 22:40:58 435.000/436.395/437.385
CINEMA 3 06 May 22:36:03 22:37:19 11° 273° (W) 22:38:35 145.822/145.860
Cosmos 2504 06 May 22:39:01 22:44:41 24° 293° (WNW) 22:50:23 435.465 / 435.565
CUBEBUG 2 06 May 22:50:42 22:54:01 19° 268° (W) 22:57:17 437.445
ZACube-1 06 May 22:53:16 22:57:18 32° 263° (W) 23:01:17 437.345
ESTCUBE 1 06 May 23:00:16 23:03:16 18° 64° (ENE) 23:06:16 437.505/2401.250
DELFI C3 06 May 23:04:50 23:08:30 37° 262° (W) 23:12:11 145.870
AO-85 06 May 23:05:18 23:06:35 11° 255° (WSW) 23:07:51 145.980
PRISM 06 May 23:05:44 23:08:49 20° 294° (WNW) 23:11:55 437.425
UKube-1 06 May 23:08:13 23:09:30 11° 60° (ENE) 23:10:47 .
DX 1 06 May 23:09:00 23:11:18 14° 62° (ENE) 23:13:37 434.975-435.025
HUMSAT D 06 May 23:17:12 23:21:22 65° 258° (WSW) 23:25:31 437.325/437.525
UNISAT 6 06 May 23:17:30 23:21:05 25° 95° (E) 23:24:36 437.425
50 SAT 06 May 23:21:48 23:24:25 19° 67° (ENE) 23:27:02 437.505
VELOX 1 06 May 23:26:19 23:29:51 23° 66° (ENE) 23:33:23 145.980
Oscar 11 06 May 23:29:08 23:30:53 12° 270° (W) 23:32:37 145.826/435.025
TIGRISAT 06 May 23:33:11 23:37:08 35° 97° (E) 23:41:00 435.000
RS-15 06 May 23:42:14 23:53:19 52° 317° (NW) 00:05:03 29.354- 29.394
GONETS M04 06 May 23:49:07 23:56:00 26° 81° (E) 00:02:52
AIST 1 06 May 23:49:22 23:51:59 16° 85° (E) 23:54:36
AISAT 06 May 23:58:07 00:02:26 51° 72° (ENE) 00:06:48 437.250
ANTELSAT 06 May 23:59:05 00:03:24 72° 103° (ESE) 00:07:37 437.575/2403.000
O/OREOS (USA 219) 07 May 00:12:26 00:16:45 42° 62° (ENE) 00:21:00 437.305
PCSat 07 May 00:12:57 00:18:13 47° 54° (NE) 00:23:26 145.827
CUBEBUG 1 07 May 00:22:01 00:26:24 86° 79° (ENE) 00:30:52 437.445
DUCHIFAT 1 07 May 00:30:02 00:33:38 27° 95° (E) 00:37:11 145.980
ESTCUBE 1 07 May 00:35:22 00:39:42 49° 260° (W) 00:44:04 437.505/2401.250
QB50P2 07 May 00:36:37 00:40:33 37° 98° (E) 00:44:28 145.880/145.840
Cosmos 2499 07 May 00:38:11 00:43:37 25° 83° (E) 00:49:06 435.465 / 435.565
CUSAT 1 07 May 00:38:43 00:43:28 17° 61° (ENE) 00:48:25 437.405
POLYITAN 1 07 May 00:38:50 00:42:47 37° 98° (E) 00:46:41 437.675
POPSAT HIP 1 07 May 00:40:10 00:44:08 38° 98° (E) 00:48:03 437.405
UKube-1 07 May 00:40:35 00:44:54 79° 255° (WSW) 00:49:16 .
DX 1 07 May 00:42:40 00:46:59 62° 258° (WSW) 00:51:21 434.975-435.025
QB50P1 07 May 00:42:54 00:46:55 41° 98° (E) 00:50:54 145.935-145.965
BUGSAT 1 07 May 00:52:59 00:56:20 23° 95° (E) 00:59:38 437.445
UNISAT 6 07 May 00:54:04 00:57:47 29° 292° (WNW) 01:01:28 437.425
50 SAT 07 May 00:54:51 00:58:02 28° 263° (W) 01:01:14 437.505
SPROUT 07 May 01:01:53 01:06:13 88° 67° (ENE) 01:10:33 437.525
VELOX 1 07 May 01:02:04 01:06:08 35° 263° (W) 01:10:14 145.980
TIGRISAT 07 May 01:10:21 01:13:37 21° 294° (WNW) 01:16:51 435.000
NANOSAT C BR1 07 May 01:14:58 01:19:13 88° 280° (W) 01:23:25 145.865
TISAT 1 07 May 01:19:09 01:23:08 41° 71° (ENE) 01:27:09 437.305
AIST 1 07 May 01:25:01 01:29:09 44° 282° (WNW) 01:33:22
JAS-2 07 May 01:29:54 01:36:24 28° 91° (E) 01:42:43 435.910
BEESAT 3 07 May 01:34:30 01:36:43 14° 39° (NE) 01:38:55 437.485
AISAT 07 May 01:36:31 01:39:13 16° 269° (W) 01:41:56 437.250
ANTELSAT 07 May 01:38:02 01:39:30 12° 299° (WNW) 01:40:58 437.575/2403.000
GONETS M04 07 May 01:43:12 01:52:00 69° 281° (W) 02:00:50
Oscar 19 07 May 01:43:48 01:46:05 13° 89° (E) 01:48:23 437.125/150
ITUPSAT 1 07 May 01:50:50 01:54:11 19° 63° (ENE) 01:57:33 437.325
BEESAT 2 07 May 01:50:54 01:52:52 13° 38° (NE) 01:54:51 435.950
O/OREOS (USA 219) 07 May 01:52:36 01:55:49 19° 259° (W) 01:59:00 437.305
PCSat 07 May 01:56:53 02:01:20 26° 252° (WSW) 02:05:44 145.827
SWISSCUBE 07 May 01:57:10 02:00:59 25° 65° (ENE) 02:04:48 437.505
RS-15 07 May 02:00:04 02:09:32 26° 349° (N) 02:19:20 29.354- 29.394
DANDE 07 May 02:01:18 02:07:33 33° 71° (ENE) 02:14:43 436.750
DUCHIFAT 1 07 May 02:05:43 02:09:16 27° 292° (WNW) 02:12:46 145.980
QB50P2 07 May 02:13:00 02:16:07 20° 294° (WNW) 02:19:13 145.880/145.840
POLYITAN 1 07 May 02:15:16 02:18:21 20° 295° (WNW) 02:21:23 437.675
Gurwin Techsat 1B 07 May 02:16:35 02:17:23 10° 87° (E) 02:18:09 435.225
POPSAT HIP 1 07 May 02:16:35 02:19:40 20° 295° (WNW) 02:22:43 437.405
CUSAT 1 07 May 02:19:03 02:26:38 76° 79° (E) 02:34:44 437.405
QB50P1 07 May 02:19:29 02:22:24 18° 295° (WNW) 02:25:18 145.935-145.965
BUGSAT 1 07 May 02:28:04 02:31:43 30° 291° (WNW) 02:35:20 437.445
BEESAT 07 May 02:28:57 02:33:27 44° 70° (ENE) 02:37:59 436.000
Cosmos 2499 07 May 02:29:13 02:36:07 58° 282° (WNW) 02:43:12 435.465 / 435.565
TISAT 1 07 May 02:56:02 02:58:57 18° 267° (W) 03:01:54 437.305
BEESAT 3 07 May 03:10:57 03:14:55 76° 238° (WSW) 03:18:50 437.485
ITAMSAT 1 07 May 03:12:03 03:14:53 15° 90° (E) 03:17:41 435.822/435.867
JAS-2 07 May 03:14:04 03:21:51 68° 289° (WNW) 03:29:30 435.910
KKS-1 07 May 03:19:37 03:22:50 20° 64° (ENE) 03:26:04 437.445
Oscar 19 07 May 03:20:47 03:26:01 79° 286° (WNW) 03:31:11 437.125/150
STARS 07 May 03:25:16 03:26:57 12° 60° (ENE) 03:28:40 437.465
ITUPSAT 1 07 May 03:27:03 03:31:39 50° 260° (W) 03:36:18 437.325
BEESAT 2 07 May 03:27:18 03:31:19 87° 235° (SW) 03:35:17 435.950
SWISSCUBE 07 May 03:34:11 03:38:35 37° 262° (W) 03:43:01 437.505
DANDE 07 May 03:43:41 03:50:35 56° 265° (W) 03:58:37 436.750
GONETS M04 07 May 03:46:07 03:50:42 15° 304° (NW) 03:55:19
Gurwin Techsat 1B 07 May 03:52:44 03:58:05 85° 105° (ESE) 04:03:24 435.225
MOZHAYETS 4 07 May 03:56:00 03:59:54 29° 68° (ENE) 04:03:49
AIST 2 07 May 04:00:11 04:03:15 19° 43° (NE) 04:06:18 435.215
CUSAT 1 07 May 04:02:18 04:08:11 25° 275° (W) 04:14:18 437.405
BEESAT 07 May 04:07:58 04:11:27 20° 267° (W) 04:14:58 436.000
YUBILEINY 07 May 04:13:51 04:16:41 12° 53° (NE) 04:19:29 435.215
RS-15 07 May 04:16:47 04:27:15 32° 24° (NNE) 04:37:52 29.354- 29.394
ITAMSAT 1 07 May 04:49:40 04:54:51 71° 287° (WNW) 05:00:01 435.822/435.867
AO-7 07 May 04:53:22 05:01:17 45° 100° (E) 05:09:10 29.400- 29.500
KKS-1 07 May 04:54:49 04:59:05 44° 261° (W) 05:03:24 437.445
STARS 07 May 04:58:16 05:02:42 77° 256° (WSW) 05:07:10 437.465
JAS-2 07 May 05:01:07 05:05:28 16° 308° (NW) 05:09:50 435.910
Oscar 19 07 May 05:02:51 05:04:27 11° 304° (WNW) 05:06:04 437.125/150
ISS 07 May 05:26:25 05:27:26 11° 130° (SE) 05:28:27 145.825
MOZHAYETS 4 07 May 05:33:03 05:37:01 29° 265° (W) 05:40:59
Gurwin Techsat 1B 07 May 05:34:34 05:37:18 14° 302° (WNW) 05:40:02 435.225
AIST 2 07 May 05:37:59 05:42:02 53° 241° (WSW) 05:46:03 435.215
CUBESAT XI-V 07 May 05:53:24 05:57:53 53° 73° (ENE) 06:02:24 437.345
YUBILEINY 07 May 06:07:07 06:15:43 58° 77° (ENE) 06:24:16 435.215
HORYU 2 07 May 06:12:03 06:16:26 59° 101° (ESE) 06:20:46 437.375
SO-50 07 May 06:14:46 06:18:57 28° 113° (ESE) 06:23:08 436.795
ITAMSAT 1 07 May 06:33:00 06:33:22 10° 305° (NW) 06:33:46 435.822/435.867
